Data for 05/28/2008

Time Sea-Level Adjusted Pressure Absolute Pressure Temperature Relative Humidity Dew Point   
(mb) (inHg) (mb) (inHg) (C) (F) (%) (C) (F)
00:05 1020 30.12 849 25.07 4 39.2 91 2.6 36.7
00:10 1020 30.12 849 25.07 4 39.2 91 2.6 36.6
00:15 1020 30.12 849 25.07 3.9 39.1 91 2.6 36.6
00:20 1020 30.12 849 25.07 3.9 39 91 2.6 36.6
00:25 1020 30.12 849 25.07 3.9 39 91 2.5 36.6
00:30 1020 30.12 849 25.07 3.9 39 91 2.5 36.6
00:35 1020 30.12 849 25.07 3.9 39 91 2.6 36.6
00:40 1020 30.12 849 25.07 3.9 39 91 2.6 36.6
00:45 1020 30.12 849 25.07 3.9 39.1 91 2.6 36.6
00:50 1020 30.12 849 25.07 3.9 39 91 2.6 36.7
00:55 1020 30.12 849 25.07 3.9 39 91 2.6 36.6
01:00 1020 30.12 849 25.07 3.9 39 91 2.6 36.7
01:05 1020 30.12 849 25.07 3.8 38.9 92 2.6 36.7
01:10 1020 30.12 849 25.07 3.8 38.9 92 2.6 36.7
01:15 1020 30.12 849 25.07 3.9 39 91 2.6 36.7
01:20 1020 30.12 849 25.07 4 39.1 91 2.6 36.8
01:25 1019 30.09 849 25.07 3.9 39 91 2.6 36.7
01:30 1019 30.09 849 25.07 3.9 39 91 2.6 36.7
01:35 1019 30.09 849 25.07 3.9 39 91 2.6 36.7
01:40 1019 30.09 849 25.07 3.8 38.9 92 2.6 36.7
01:45 1019 30.09 848 25.04 3.8 38.8 92 2.6 36.7
01:50 1019 30.09 848 25.04 3.9 39 92 2.7 36.8
01:55 1019 30.09 848 25.04 3.9 39 92 2.7 36.8
02:00 1019 30.09 848 25.04 3.9 38.9 92 2.6 36.8
02:05 1019 30.09 848 25.04 3.9 39 92 2.7 36.9
02:10 1019 30.09 848 25.04 3.8 38.9 92 2.7 36.8
02:15 1019 30.09 848 25.04 3.8 38.9 92 2.7 36.8
02:20 1019 30.09 848 25.04 3.8 38.8 92 2.7 36.8
02:25 1019 30.09 848 25.04 3.8 38.8 93 2.7 36.8
02:30 1019 30.09 848 25.04 3.7 38.7 93 2.7 36.9
02:35 1019 30.09 848 25.04 3.8 38.8 93 2.7 36.8
02:40 1019 30.09 848 25.04 3.7 38.7 93 2.7 36.8
02:45 1019 30.09 848 25.04 3.7 38.6 93 2.7 36.9
02:50 1019 30.09 848 25.04 3.6 38.5 94 2.7 36.8
02:55 1019 30.09 848 25.04 3.6 38.5 94 2.7 36.9
03:00 1019 30.09 848 25.04 3.6 38.5 94 2.7 36.9
03:05 1019 30.09 848 25.04 3.6 38.5 94 2.7 36.9
03:10 1019 30.09 848 25.04 3.7 38.6 94 2.7 36.9
03:15 1019 30.09 848 25.04 3.7 38.6 94 2.7 36.9
03:20 1019 30.09 848 25.04 3.7 38.6 94 2.7 36.9
03:25 1019 30.09 848 25.04 3.6 38.5 94 2.7 36.9
03:30 1019 30.09 848 25.04 3.6 38.4 94 2.7 36.9
03:35 1019 30.09 848 25.04 3.5 38.3 95 2.7 36.9
03:40 1019 30.09 848 25.04 3.5 38.2 95 2.7 36.9
03:45 1019 30.09 848 25.04 3.5 38.2 95 2.7 36.9
03:50 1019 30.09 848 25.04 3.4 38.2 95 2.8 37
03:55 1019 30.09 848 25.04 3.5 38.2 95 2.8 37
04:00 1019 30.09 848 25.04 3.4 38.2 96 2.8 37
04:05 1019 30.09 848 25.04 3.4 38.1 96 2.7 36.9
04:10 1019 30.09 848 25.04 3.4 38.1 96 2.8 37
04:15 1019 30.09 848 25.04 3.4 38 96 2.8 37
04:20 1019 30.09 848 25.04 3.3 38 96 2.8 37
04:25 1018 30.06 848 25.04 3.3 38 96 2.8 37
04:30 1018 30.06 848 25.04 3.3 38 96 2.8 37
04:35 1018 30.06 848 25.04 3.4 38.1 97 2.9 37.2
04:40 1018 30.06 848 25.04 3.3 38 97 2.9 37.1
04:45 1018 30.06 848 25.04 3.3 38 97 2.8 37.1
04:50 1018 30.06 848 25.04 3.3 38 97 2.9 37.1
04:55 1018 30.06 848 25.04 3.3 38 97 2.9 37.2
05:00 1018 30.06 847 25.01 3.3 38 97 2.9 37.2
05:05 1018 30.06 848 25.04 3.4 38.1 97 2.9 37.3
05:10 1018 30.06 848 25.04 3.4 38.1 97 2.9 37.2
05:15 1018 30.06 847 25.01 3.4 38.1 97 2.9 37.2
05:20 1018 30.06 848 25.04 3.4 38.1 97 2.9 37.3
05:25 1018 30.06 847 25.01 3.4 38.1 97 2.9 37.2
05:30 1018 30.06 847 25.01 3.4 38.1 97 2.9 37.2
05:35 1018 30.06 847 25.01 3.4 38.1 97 2.9 37.2
05:40 1018 30.06 847 25.01 3.4 38.1 97 2.9 37.2
05:45 1018 30.06 847 25.01 3.4 38.1 97 2.9 37.2
05:50 1018 30.06 847 25.01 3.4 38.2 97 2.9 37.3
05:55 1018 30.06 847 25.01 3.5 38.3 96 3 37.3
06:00 1018 30.06 847 25.01 3.6 38.4 96 3 37.4
06:05 1018 30.06 847 25.01 3.6 38.5 96 3 37.4
06:10 1018 30.06 847 25.01 3.6 38.6 96 3 37.4
06:15 1018 30.06 847 25.01 3.7 38.6 95 3 37.4
06:20 1018 30.06 847 25.01 3.7 38.7 95 3 37.5
06:25 1018 30.06 847 25.01 3.8 38.8 95 3.1 37.5
06:30 1018 30.06 847 25.01 3.8 38.9 95 3.1 37.5
06:35 1018 30.06 847 25.01 3.9 38.9 95 3.1 37.5
06:40 1018 30.06 847 25.01 4 39.1 94 3.1 37.5
06:45 1018 30.06 847 25.01 4.1 39.4 93 3.1 37.6
06:50 1018 30.06 847 25.01 4.2 39.6 93 3.2 37.7
06:55 1018 30.06 847 25.01 4.2 39.6 93 3.2 37.7
07:00 1018 30.06 847 25.01 4.2 39.6 93 3.2 37.7
07:05 1018 30.06 847 25.01 4.3 39.8 93 3.3 37.9
07:10 1018 30.06 847 25.01 4.4 39.8 93 3.3 37.9
07:15 1018 30.06 847 25.01 4.4 39.9 92 3.2 37.7
07:20 1018 30.06 847 25.01 4.5 40.1 91 3.2 37.7
07:25 1018 30.06 847 25.01 4.7 40.5 90 3.3 37.9
07:30 1018 30.06 847 25.01 5 40.9 89 3.4 38.1
07:35 1018 30.06 847 25.01 5.1 41.1 89 3.4 38.1
07:40 1018 30.06 847 25.01 5.1 41.2 88 3.3 38
07:45 1018 30.06 847 25.01 5.2 41.4 88 3.3 38
07:50 1018 30.06 847 25.01 5.3 41.5 88 3.4 38.1
07:55 1018 30.06 847 25.01 5.3 41.5 88 3.4 38.1
08:00 1018 30.06 847 25.01 5.2 41.3 88 3.4 38.1
08:05 1018 30.06 847 25.01 5.2 41.4 89 3.5 38.3
08:10 1018 30.06 847 25.01 5.2 41.4 89 3.5 38.4
08:15 1018 30.06 847 25.01 5.6 42 88 3.7 38.6
08:20 1018 30.06 847 25.01 5.9 42.7 86 3.8 38.9
08:25 1018 30.06 847 25.01 5.8 42.5 87 3.7 38.7
08:30 1018 30.06 847 25.01 6.1 42.9 86 3.8 38.9
08:35 1018 30.06 847 25.01 6.4 43.5 85 4 39.2
08:40 1018 30.06 847 25.01 6.8 44.2 83 4.1 39.4
08:45 1018 30.06 847 25.01 6.8 44.2 83 4.1 39.4
08:50 1018 30.06 847 25.01 7 44.5 82 4.2 39.5
08:55 1018 30.06 847 25.01 7.1 44.8 82 4.2 39.5
09:00 1018 30.06 847 25.01 7.1 44.7 82 4.2 39.6
09:05 1017 30.03 847 25.01 7 44.6 82 4.1 39.5
09:10 1017 30.03 847 25.01 7 44.6 82 4.2 39.5
09:15 1017 30.03 847 25.01 7.2 44.9 81 4.2 39.5
09:20 1017 30.03 847 25.01 7.3 45.1 81 4.2 39.5
09:25 1017 30.03 847 25.01 7.8 46 79 4.4 39.9
09:30 1017 30.03 847 25.01 8 46.4 79 4.6 40.3
09:35 1017 30.03 846 24.98 7.9 46.3 79 4.5 40.1
09:40 1017 30.03 846 24.98 8 46.3 79 4.6 40.2
09:45 1017 30.03 846 24.98 8.5 47.4 76 4.6 40.3
09:50 1017 30.03 846 24.98 8.4 47.2 77 4.7 40.5
09:55 1017 30.03 846 24.98 8.3 47 78 4.8 40.6
10:00 1017 30.03 846 24.98 8.3 46.9 78 4.7 40.5
10:05 1017 30.03 846 24.98 8.3 47 78 4.8 40.6
10:10 1017 30.03 846 24.98 8.7 47.6 77 4.9 40.9
10:15 1017 30.03 846 24.98 8.4 47.2 78 4.8 40.7
10:20 1017 30.03 846 24.98 8.3 46.9 79 4.8 40.7
10:25 1017 30.03 846 24.98 8.4 47.1 78 4.7 40.5
10:30 1017 30.03 846 24.98 8.8 47.9 77 5 41
10:35 1017 30.03 846 24.98 9.1 48.3 77 5.2 41.4
10:40 1017 30.03 846 24.98 9.1 48.3 76 5 41
10:45 1017 30.03 846 24.98 9.6 49.3 75 5.3 41.6
10:50 1016 30 846 24.98 9.6 49.3 75 5.3 41.6
10:55 1016 30 846 24.98 9.6 49.2 75 5.3 41.6
11:00 1016 30 846 24.98 10.2 50.4 73 5.5 42
11:05 1016 30 846 24.98 9.9 49.8 74 5.5 41.9
11:10 1016 30 846 24.98 9.7 49.4 74 5.3 41.6
11:15 1016 30 846 24.98 9.6 49.3 76 5.5 41.9
11:20 1016 30 846 24.98 9.3 48.8 76 5.3 41.5
11:25 1016 30 846 24.98 9.9 49.9 73 5.4 41.7
11:30 1016 30 846 24.98 10.6 51.1 72 5.9 42.6
11:35 1016 30 845 24.95 10.6 51.1 74 6.1 43
11:40 1016 30 845 24.95 10.8 51.4 71 5.8 42.4
11:45 1016 30 845 24.95 11.3 52.4 70 6 42.9
11:50 1016 30 845 24.95 11.6 52.9 68 6.1 42.9
11:55 1016 30 845 24.95 11.7 53.1 69 6.2 43.2
12:00 1016 30 845 24.95 11.4 52.6 71 6.3 43.3
12:05 1016 30 845 24.95 12.1 53.7 68 6.3 43.4
12:10 1016 30 845 24.95 12 53.6 68 6.3 43.4
12:15 1016 30 845 24.95 12.1 53.8 68 6.4 43.5
12:20 1016 30 845 24.95 12.5 54.5 67 6.5 43.8
12:25 1016 30 845 24.95 12.9 55.2 65 6.5 43.7
12:30 1016 30 845 24.95 13.1 55.6 64 6.5 43.7
12:35 1015 29.97 845 24.95 12.9 55.3 65 6.5 43.7
12:40 1015 29.97 845 24.95 13.2 55.7 63 6.4 43.6
12:45 1015 29.97 845 24.95 14.2 57.6 60 6.6 43.9
12:50 1015 29.97 845 24.95 14.6 58.3 60 7 44.7
12:55 1015 29.97 845 24.95 13.8 56.9 61 6.5 43.7
13:00 1015 29.97 845 24.95 13.8 56.8 61 6.6 43.8
13:05 1015 29.97 845 24.95 14.3 57.7 60 6.8 44.2
13:10 1015 29.97 845 24.95 13.8 56.8 62 6.7 44
13:15 1015 29.97 845 24.95 13.6 56.4 61 6.3 43.4
13:20 1015 29.97 845 24.95 13.9 57 60 6.4 43.6
13:25 1016 30 845 24.95 13.7 56.6 62 6.7 44
13:30 1016 30 845 24.95 12.9 55.2 66 6.7 44
13:35 1016 30 845 24.95 12.6 54.7 66 6.6 43.8
13:40 1016 30 846 24.98 12.3 54.1 69 6.8 44.3
13:45 1017 30.03 846 24.98 11.9 53.4 71 6.8 44.2
13:50 1017 30.03 846 24.98 11.5 52.7 79 8.1 46.5
13:55 1017 30.03 846 24.98 11.1 51.9 84 8.4 47.1
14:00 1017 30.03 846 24.98 11 51.8 78 7.4 45.3
14:05 1017 30.03 846 24.98 10.9 51.7 86 8.6 47.5
14:10 1017 30.03 846 24.98 10.4 50.7 87 8.4 47.1
14:15 1017 30.03 846 24.98 10.2 50.3 86 7.9 46.2
14:20 1017 30.03 846 24.98 10.3 50.6 83 7.6 45.7
14:25 1017 30.03 846 24.98 10.4 50.7 83 7.6 45.7
14:30 1017 30.03 846 24.98 10.3 50.6 88 8.5 47.3
14:35 1016 30 846 24.98 9.8 49.6 90 8.3 47
14:40 1017 30.03 846 24.98 9.3 48.8 91 8 46.4
14:45 1016 30 846 24.98 8.8 47.8 93 7.7 45.8
14:50 1016 30 845 24.95 8.6 47.4 94 7.6 45.7
14:55 1016 30 845 24.95 8.6 47.5 94 7.7 45.8
15:00 1016 30 846 24.98 8.6 47.5 95 7.8 46
15:05 1016 30 845 24.95 8.7 47.6 94 7.8 46
15:10 1016 30 845 24.95 9 48.2 93 8 46.4
15:15 1016 30 845 24.95 9.3 48.8 94 8.4 47.1
15:20 1016 30 845 24.95 9.6 49.3 92 8.4 47
15:25 1016 30 845 24.95 9.8 49.7 92 8.6 47.6
15:30 1016 30 845 24.95 10.3 50.6 91 8.9 48.1
15:35 1016 30 845 24.95 10.8 51.4 89 9 48.2
15:40 1016 30 845 24.95 11.2 52.2 87 9.2 48.5
15:45 1016 30 845 24.95 11.9 53.5 84 9.3 48.8
15:50 1016 30 845 24.95 12.5 54.5 79 9 48.2
15:55 1016 30 845 24.95 12.9 55.2 78 9.3 48.7
16:00 1015 29.97 845 24.95 13.7 56.6 69 8 46.4
16:05 1015 29.97 845 24.95 13.8 56.9 67 7.8 46
16:10 1015 29.97 844 24.92 14.4 57.9 61 7 44.5
16:15 1015 29.97 844 24.92 14.8 58.7 60 7.1 44.8
16:20 1015 29.97 844 24.92 14.9 58.8 56 6.3 43.3
16:25 1015 29.97 844 24.92 14.7 58.4 57 6.3 43.4
16:30 1015 29.97 844 24.92 15 59 53 5.7 42.2
16:35 1015 29.97 844 24.92 15 58.9 54 5.9 42.7
16:40 1015 29.97 844 24.92 14.9 58.8 56 6.3 43.4
16:45 1015 29.97 844 24.92 14.7 58.5 55 6 42.8
16:50 1014 29.94 844 24.92 14.8 58.6 60 7.2 45
16:55 1014 29.94 844 24.92 14.9 58.8 61 7.5 45.4
17:00 1014 29.94 843 24.89 14.6 58.3 63 7.7 45.8
17:05 1014 29.94 844 24.92 14.4 57.9 63 7.5 45.5
17:10 1014 29.94 843 24.89 14.5 58.1 61 7.2 44.9
17:15 1014 29.94 843 24.89 14.5 58.1 61 7 44.6
17:20 1014 29.94 844 24.92 14.7 58.5 62 7.5 45.5
17:25 1014 29.94 844 24.92 14.9 58.8 62 7.8 46
17:30 1014 29.94 844 24.92 14.5 58.1 62 7.4 45.3
17:35 1014 29.94 844 24.92 14.6 58.3 61 7.3 45.2
17:40 1014 29.94 844 24.92 15.1 59.1 61 7.7 45.9
17:45 1014 29.94 844 24.92 15.1 59.1 62 7.9 46.2
17:50 1014 29.94 843 24.89 14.4 57.9 63 7.6 45.7
17:55 1014 29.94 843 24.89 14.1 57.4 64 7.5 45.5
18:00 1014 29.94 843 24.89 13.9 56.9 66 7.7 45.8
18:05 1014 29.94 843 24.89 13.1 55.7 70 7.9 46.3
18:10 1014 29.94 843 24.89 13 55.5 69 7.6 45.6
18:15 1014 29.94 843 24.89 13.1 55.5 69 7.7 45.8
18:20 1014 29.94 843 24.89 12.9 55.3 68 7.1 44.8
18:25 1014 29.94 843 24.89 12.7 54.9 66 6.5 43.7
18:30 1014 29.94 843 24.89 12.5 54.6 66 6.4 43.4
18:35 1014 29.94 843 24.89 12.4 54.2 66 6.2 43.2
18:40 1014 29.94 843 24.89 12.3 54.1 66 6.2 43.1
18:45 1014 29.94 844 24.92 12.3 54.1 66 6.2 43.2
18:50 1016 30 845 24.95 12.1 53.8 63 5.3 41.5
18:55 1016 30 845 24.95 10.6 51.2 73 6.1 42.9
19:00 1016 30 845 24.95 9.5 49.1 77 5.7 42.3
19:05 1016 30 845 24.95 8.9 48.1 80 5.7 42.3
19:10 1016 30 845 24.95 8.8 47.8 85 6.4 43.5
19:15 1016 30 845 24.95 8.8 47.8 85 6.4 43.6
19:20 1016 30 845 24.95 8.9 48 84 6.3 43.4
19:25 1016 30 845 24.95 9 48.2 83 6.3 43.4
19:30 1016 30 845 24.95 9.1 48.4 84 6.5 43.7
19:35 1016 30 845 24.95 9 48.2 85 6.7 44
19:40 1016 30 845 24.95 8.8 47.8 86 6.7 44
19:45 1016 30 845 24.95 8.7 47.7 88 6.8 44.2
19:50 1016 30 845 24.95 8.8 47.9 87 6.8 44.3
19:55 1016 30 845 24.95 8.9 48.1 88 7 44.6
20:00 1016 30 845 24.95 8.9 48.1 87 6.9 44.4
20:05 1016 30 845 24.95 8.9 48 89 7.1 44.8
20:10 1016 30 845 24.95 8.4 47.1 92 7.1 44.9
20:15 1016 30 845 24.95 8.4 47 93 7.2 45
20:20 1016 30 845 24.95 8.4 47 93 7.3 45.1
20:25 1016 30 845 24.95 8.3 46.9 93 7.2 44.9
20:30 1016 30 845 24.95 8.2 46.8 93 7.2 45
20:35 1016 30 845 24.95 8.3 46.9 93 7.3 45.1
20:40 1016 30 845 24.95 8.2 46.8 93 7.1 44.8
20:45 1016 30 845 24.95 8.2 46.7 93 7.1 44.9
20:50 1016 30 845 24.95 8.3 46.9 93 7.2 45
20:55 1016 30 845 24.95 8.3 46.9 94 7.3 45.1
21:00 1016 30 845 24.95 8.2 46.7 94 7.2 45
21:05 1016 30 845 24.95 8.2 46.8 93 7.2 44.9
21:10 1016 30 845 24.95 8.2 46.7 93 7.2 44.9
21:15 1016 30 845 24.95 8 46.5 93 7 44.6
21:20 1016 30 845 24.95 8.1 46.6 93 7.1 44.7
21:25 1016 30 845 24.95 8.1 46.6 93 7 44.7
21:30 1015 29.97 845 24.95 8 46.4 93 7 44.6
21:35 1015 29.97 844 24.92 7.9 46.1 93 6.8 44.3
21:40 1015 29.97 844 24.92 7.8 46.1 93 6.8 44.2
21:45 1015 29.97 844 24.92 7.8 46 93 6.8 44.2
21:50 1015 29.97 844 24.92 7.6 45.8 94 6.8 44.2
21:55 1015 29.97 845 24.95 7.6 45.7 95 6.8 44.2
22:00 1015 29.97 845 24.95 7.7 45.8 94 6.8 44.2
22:05 1015 29.97 845 24.95 7.7 45.9 94 6.8 44.3
22:10 1015 29.97 845 24.95 7.8 46 94 6.8 44.3
22:15 1015 29.97 845 24.95 7.8 46 93 6.8 44.2
22:20 1015 29.97 845 24.95 7.8 46 93 6.7 44.1
22:25 1015 29.97 845 24.95 7.8 46 93 6.7 44.1
22:30 1015 29.97 845 24.95 7.7 45.9 93 6.7 44
22:35 1015 29.97 845 24.95 7.8 46 92 6.6 43.8
22:40 1015 29.97 845 24.95 7.9 46.1 91 6.5 43.7
22:45 1015 29.97 845 24.95 8 46.3 91 6.5 43.7
22:50 1015 29.97 845 24.95 8 46.4 91 6.6 43.8
22:55 1015 29.97 845 24.95 7.8 46 92 6.5 43.7
23:00 1015 29.97 845 24.95 7.7 45.9 92 6.5 43.6
23:05 1015 29.97 845 24.95 7.6 45.7 92 6.4 43.4
23:10 1015 29.97 845 24.95 7.5 45.5 92 6.3 43.4
23:15 1015 29.97 845 24.95 7.4 45.4 93 6.3 43.4
23:20 1015 29.97 845 24.95 7.5 45.4 92 6.3 43.3
23:25 1015 29.97 845 24.95 7.6 45.6 92 6.4 43.4
23:30 1015 29.97 845 24.95 7.6 45.7 92 6.4 43.4
23:35 1015 29.97 845 24.95 7.6 45.7 91 6.3 43.3
23:40 1015 29.97 845 24.95 7.6 45.7 91 6.3 43.3
23:45 1015 29.97 845 24.95 7.6 45.7 91 6.3 43.3
23:50 1015 29.97 845 24.95 7.6 45.6 92 6.3 43.3
23:55 1015 29.97 845 24.95 7.5 45.5 92 6.3 43.3
24:00 1015 29.97 845 24.95 7.5 45.4 92 6.2 43.1